Вернуться в каталог

GLOBALSTAR M035

АктивенСвязьMEO
NORAD 25851·PAYLOAD·🇺🇸 United States

Запущен Jul 10, 1999 с Cape Canaveral Space Force Station

Loading…

Ближайшие Пролёты (ближайшие 24 часа)

TLE

СвежийSource: Space-Track

Эпоха: Sep 14, 2026, 14:17 UTC

1 25851U 99037A   26257.59515803 -.00000032  00000-0  11931-2 0  9990
2 25851  51.9928 121.5828 0014219   1.5414  18.7999 11.04542962146475

Отслеживайте GLOBALSTAR M035 в реальном времени с AllMySat

Download on the App Store